Temp
73 76 82 83 83 84 84 83 83 83 83 83 83 83 83 83 83 83 83 83 83 84 84 84 84 84 84 84 84 84 84 82 83 84 83 82 82 83 82 82 84 83 83
77 78 82 83 83 83 83 83 83 83 83 83 83 83 84 83 83 83 83 84 84 84 84 84 84 84 84 84 84 84 84 83 80 79 79 76 82 83 82 83 83 82 82
78 79 81 83 83 83 83 83 83 83 83 83 83 83 83 83 83 83 83 84 83 83 84 84 84 84 84 84 84 84 84 81 79 79 81 73 76 82 83 83 83 83 82
80 78 80 81 83 83 83 83 83 84 83 83 83 84 84 83 84 84 83 84 82 84 84 84 84 84 84 84 84 83 83 81 80 80 75 76 76 82 83 82 83 83 83
81 80 81 82 83 83 83 83 83 84 84 83 83 83 83 83 84 84 84 83 84 84 84 84 84 84 84 84 84 83 83 79 75 78 74 72 71 83 83 83 83 83 83
82 81 82 83 83 84 84 84 83 83 83 83 84 83 84 84 84 84 83 84 84 84 84 84 84 84 84 84 84 84 84 82 79 73 73 71 71 83 83 83 83 83 83
81 81 82 83 83 83 83 84 84 83 83 83 84 84 84 84 84 84 84 84 84 84 84 84 84 84 84 84 84 84 84 81 76 73 72 70 73 82 84 84 84 83 83
79 80 81 83 83 83 84 84 83 83 83 84 84 84 84 84 84 84 84 84 84 84 84 84 84 84 84 84 84 84 82 79 77 74 74 72 78 82 84 83 83 83 82
80 79 78 81 82 84 84 84 83 83 83 84 84 84 83 84 84 84 84 84 84 84 84 84 84 84 84 84 84 84 81 77 73 72 76 75 81 83 84 84 83 83 82
77 75 77 77 77 78 79 84 84 83 84 84 84 84 84 84 84 84 83 84 84 84 84 85 85 84 84 83 82 82 80 78 76 75 73 76 80 83 84 83 83 83 82
75 74 76 76 75 75 76 80 83 84 83 84 83 84 82 77 79 82 82 84 84 84 85 85 85 84 84 79 80 77 80 73 72 71 72 76 81 84 84 83 83 82 82
70 69 71 76 75 75 79 75 76 78 76 76 77 77 75 75 76 83 82 85 85 85 85 85 85 84 77 75 75 76 74 73 73 73 72 78 81 84 84 83 83 82 81
73 70 72 74 75 74 76 73 74 75 75 75 76 73 74 75 75 79 75 78 76 81 80 83 80 77 76 73 71 72 73 73 71 72 76 79 81 84 84 83 82 81 80
73 73 74 75 73 73 73 73 74 74 73 73 75 72 72 72 73 76 75 76 76 78 77 77 73 74 75 74 72 72 73 73 72 74 78 81 81 83 84 83 82 82 81
73 74 72 74 73 73 73 73 74 74 73 73 75 76 73 73 75 77 78 77 77 77 78 75 73 73 75 73 73 75 75 74 74 76 73 82 81 82 84 84 84 83 83
77 74 75 75 74 74 73 74 73 73 73 73 73 75 77 77 77 81 81 79 80 76 76 75 75 78 79 74 75 79 81 78 76 74 76 74 82 81 83 83 83 83 83
79 79 78 77 78 75 76 74 74 73 74 72 75 75 77 79 78 79 77 77 81 75 80 79 81 80 81 79 79 80 80 81 79 80 77 79 80 82 82 83 83 82 83
81 80 80 84 78 74 75 74 74 74 73 71 73 73 78 80 80 78 77 77 78 80 78 80 77 78 78 82 75 80 83 81 79 78 78 80 75 82 81 82 82 82 82
81 79 79 80 76 75 74 73 73 74 71 71 73 73 77 80 81 77 77 76 77 78 77 79 77 77 79 78 78 78 78 75 77 87 80 81 79 77 75 81 81 81 83
80 80 80 79 76 74 74 72 73 73 73 73 75 76 78 80 80 78 76 78 80 76 75 74 76 79 76 74 82 80 77 75 75 75 79 81 78 79 77 77 76 79 81
81 79 77 75 75 74 72 71 70 72 74 74 74 78 79 78 80 78 77 77 77 74 74 76 75 73 75 73 73 73 73 74 73 73 78 73 75 78 75 74 73 76 78
79 79 76 76 74 75 75 74 73 73 75 78 76 77 78 79 80 79 78 77 76 74 75 75 73 73 72 74 72 70 66 69 72 81 77 75 74 75 75 75 73 72 73
79 79 77 76 75 76 75 73 72 73 73 74 75 74 79 79 80 80 79 78 75 74 74 73 72 74 71 74 74 73 66 66 67 76 75 74 74 71 71 73 75 75 74
79 80 79 77 76 76 74 73 72 70 70 72 75 76 77 80 80 81 80 77 76 75 74 71 77 73 72 73 76 81 78 73 70 71 76 73 74 73 71 72 73 71 71
83 82 78 77 76 78 75 74 74 71 71 74 75 75 75 76 79 81 80 79 76 76 75 74 74 75 76 74 73 73 74 73 73 70 69 73 77 78 73 75 73 71 73
84 83 80 76 76 76 75 73 73 71 71 72 73 72 72 74 77 79 80 79 78 78 77 77 77 77 76 75 73 73 72 71 71 71 72 77 76 79 79 77 73 72 71
MSLP
1015.16 1015.02 1014.79 1014.84 1014.93 1015.34 1015.67 1015.79 1015.84 1016.15 1016.38 1016.35 1016.33 1016.29 1016.64 1016.92 1017.11 1017.27 1017.23 1017.22 1017.38 1017.44 1017.56 1017.54 1017.64 1017.71 1017.95 1018.11 1018.10 1018.17 1018.17 1018.26 1018.25 1018.59 1018.79 1018.76 1018.76 1018.93 1018.92 1019.12 1019.14 1019.26 1019.54
1014.52 1014.99 1015.01 1015.05 1014.86 1015.22 1015.66 1015.80 1015.91 1016.28 1016.51 1016.47 1016.47 1016.54 1016.85 1017.06 1017.38 1017.49 1017.35 1017.43 1017.58 1017.57 1017.46 1017.65 1018.00 1018.35 1018.46 1018.57 1018.70 1018.82 1019.03 1019.00 1018.93 1019.01 1019.17 1019.44 1019.07 1019.19 1019.50 1019.26 1019.37 1019.47 1019.59
1014.72 1014.89 1015.05 1015.08 1015.22 1015.33 1015.63 1015.75 1016.06 1016.34 1016.58 1016.70 1016.71 1016.76 1017.07 1017.23 1017.58 1017.69 1017.63 1017.66 1017.62 1017.55 1017.70 1017.96 1018.17 1018.26 1018.16 1018.53 1018.87 1019.09 1018.97 1019.33 1019.39 1018.68 1018.58 1019.22 1019.56 1019.14 1019.38 1019.36 1019.39 1019.63 1019.52
1014.55 1015.04 1015.22 1015.37 1015.26 1015.49 1015.75 1015.91 1016.14 1016.40 1016.70 1016.84 1016.92 1017.02 1017.20 1017.41 1017.74 1017.80 1017.89 1017.90 1017.94 1017.74 1017.84 1017.92 1018.29 1018.45 1018.62 1019.00 1019.17 1018.98 1019.09 1019.48 1019.96 1019.52 1018.84 1019.14 1019.74 1019.37 1019.47 1019.46 1019.41 1019.59 1019.67
1014.62 1015.02 1015.22 1015.44 1015.59 1015.73 1015.84 1016.05 1016.35 1016.50 1016.83 1016.87 1017.07 1017.29 1017.24 1017.64 1017.88 1017.95 1018.05 1018.14 1018.02 1018.05 1018.08 1018.41 1018.65 1018.83 1019.05 1019.16 1018.97 1019.27 1019.54 1020.24 1019.51 1018.87 1019.83 1019.82 1019.91 1019.57 1019.46 1019.32 1019.35 1019.53 1019.68
1014.53 1015.10 1015.36 1015.56 1015.61 1015.87 1015.96 1016.20 1016.46 1016.61 1016.91 1016.97 1017.15 1017.37 1017.29 1017.76 1018.06 1018.10 1018.19 1018.34 1018.33 1018.46 1018.70 1018.72 1018.89 1019.21 1019.31 1019.40 1019.40 1019.36 1019.44 1019.80 1020.17 1019.72 1019.83 1019.84 1020.15 1019.76 1019.56 1019.31 1019.28 1019.29 1019.36
1014.46 1015.12 1015.58 1015.62 1015.70 1015.88 1016.09 1016.39 1016.68 1016.71 1016.88 1017.04 1017.32 1017.35 1017.49 1017.92 1018.27 1018.30 1018.36 1018.44 1018.64 1018.80 1018.87 1018.91 1019.19 1019.35 1019.34 1019.14 1019.39 1019.72 1019.71 1019.60 1020.29 1020.40 1019.90 1020.28 1020.00 1019.69 1019.71 1019.60 1019.44 1019.43 1019.40
1014.51 1015.22 1015.64 1015.80 1015.92 1015.97 1016.11 1016.48 1016.71 1016.88 1016.96 1017.07 1017.34 1017.44 1017.63 1018.17 1018.49 1018.49 1018.54 1018.64 1018.84 1018.76 1018.92 1019.04 1019.49 1019.49 1019.34 1019.28 1019.18 1019.43 1019.92 1019.30 1020.02 1021.48 1020.88 1020.29 1019.49 1019.47 1019.73 1019.58 1019.40 1019.34 1019.62
1014.67 1015.51 1015.88 1016.02 1016.09 1016.22 1016.33 1016.50 1016.75 1017.05 1016.96 1017.15 1017.36 1017.57 1017.90 1018.38 1018.67 1018.66 1018.63 1018.71 1018.88 1018.68 1018.92 1019.19 1019.41 1019.61 1019.67 1019.43 1019.10 1019.14 1019.96 1019.78 1019.77 1020.50 1020.57 1020.19 1019.32 1019.18 1019.52 1019.63 1019.43 1019.52 1019.92
1015.25 1015.89 1016.22 1016.61 1016.54 1016.48 1016.56 1016.58 1016.81 1016.94 1017.01 1017.25 1017.29 1017.53 1017.99 1018.41 1018.67 1018.77 1018.69 1018.68 1018.67 1018.56 1018.85 1019.13 1019.48 1019.65 1019.30 1019.96 1019.77 1019.72 1019.64 1019.53 1019.77 1019.47 1020.40 1020.18 1019.58 1019.13 1019.39 1019.42 1019.49 1019.72 1020.07
1015.87 1016.07 1016.65 1016.59 1016.80 1016.58 1016.68 1016.58 1016.75 1017.02 1017.13 1017.22 1017.26 1017.57 1018.09 1018.46 1018.65 1018.74 1018.63 1018.50 1018.48 1018.42 1018.53 1018.75 1019.80 1019.45 1019.66 1020.38 1019.74 1019.11 1018.68 1019.76 1019.77 1019.79 1019.61 1019.89 1019.68 1019.07 1019.14 1019.11 1019.32 1019.71 1020.09
1016.55 1016.01 1017.19 1017.07 1016.50 1016.17 1016.24 1016.41 1016.87 1017.32 1017.41 1017.34 1017.55 1017.58 1017.99 1018.28 1018.57 1018.56 1018.35 1018.34 1018.43 1018.12 1018.24 1018.99 1020.59 1019.78 1020.61 1019.60 1020.12 1019.95 1019.88 1019.72 1019.86 1019.65 1019.71 1019.94 1019.57 1019.27 1019.12 1019.18 1019.39 1019.71 1019.95
1016.00 1017.07 1017.62 1016.79 1016.41 1016.24 1016.18 1016.47 1016.98 1017.36 1017.47 1017.42 1017.58 1017.63 1017.72 1017.98 1018.23 1018.25 1018.25 1018.21 1018.32 1018.01 1018.17 1018.35 1019.88 1019.62 1019.63 1019.48 1019.86 1019.76 1020.05 1019.78 1019.97 1019.68 1018.98 1019.14 1019.37 1019.24 1019.00 1019.23 1019.50 1019.56 1019.74
1015.49 1015.97 1016.47 1016.42 1016.67 1016.36 1016.30 1016.39 1016.96 1017.30 1017.57 1017.64 1017.77 1017.64 1017.45 1018.10 1018.16 1018.37 1018.15 1018.16 1018.25 1018.21 1018.24 1018.54 1018.23 1019.11 1018.84 1019.05 1019.21 1020.09 1019.95 1019.62 1019.88 1020.22 1018.94 1018.47 1019.02 1019.26 1018.85 1019.03 1019.22 1019.32 1019.22
1014.99 1015.56 1015.93 1015.98 1016.41 1016.27 1016.28 1016.45 1016.97 1017.34 1017.68 1017.75 1017.87 1017.87 1017.91 1018.06 1017.94 1017.96 1017.83 1017.91 1017.92 1018.26 1018.17 1018.56 1018.36 1017.68 1018.00 1018.43 1018.74 1018.95 1018.72 1018.49 1019.28 1018.72 1017.69 1018.33 1018.68 1018.91 1018.71 1018.64 1018.96 1019.15 1019.07
1014.49 1015.05 1015.31 1015.65 1015.65 1015.87 1016.29 1016.64 1017.02 1017.42 1017.60 1017.89 1018.08 1017.95 1017.76 1017.59 1017.62 1017.53 1017.39 1017.52 1017.98 1017.66 1017.60 1017.85 1018.27 1017.86 1017.49 1018.06 1018.86 1018.24 1017.87 1017.60 1018.36 1018.22 1017.91 1017.86 1018.92 1018.88 1018.96 1018.55 1018.41 1018.65 1018.82
1013.87 1014.43 1014.84 1015.16 1015.28 1015.96 1016.41 1016.58 1016.93 1017.40 1017.65 1017.91 1017.77 1017.83 1017.62 1017.29 1017.21 1017.30 1017.43 1017.62 1017.28 1017.03 1016.79 1017.33 1017.24 1017.08 1017.15 1017.52 1017.52 1016.67 1017.28 1017.29 1017.56 1017.92 1017.90 1017.49 1017.78 1018.32 1018.47 1018.36 1018.10 1018.34 1018.68
1013.43 1013.91 1014.45 1014.89 1015.56 1016.03 1016.32 1016.37 1016.66 1017.08 1017.77 1017.99 1017.79 1017.86 1017.53 1017.18 1017.00 1017.20 1017.60 1017.70 1017.60 1017.53 1017.50 1016.88 1017.19 1017.16 1017.43 1017.13 1017.17 1016.92 1016.67 1016.85 1017.71 1017.21 1016.65 1017.16 1017.46 1017.94 1018.34 1017.90 1018.07 1018.25 1018.40
1012.92 1013.59 1014.14 1014.65 1015.24 1015.81 1016.11 1016.32 1016.63 1016.96 1017.62 1017.99 1017.95 1017.86 1017.60 1017.21 1017.05 1017.61 1017.78 1017.65 1017.59 1017.40 1017.27 1017.62 1017.52 1017.20 1017.61 1017.22 1017.19 1017.11 1017.11 1016.95 1017.10 1016.48 1016.40 1016.67 1017.49 1018.17 1018.24 1018.10 1018.35 1018.32 1018.28
1012.84 1013.34 1013.92 1014.36 1014.80 1015.44 1016.03 1016.39 1016.72 1017.21 1017.51 1017.72 1017.69 1017.59 1017.47 1017.20 1017.13 1017.44 1017.53 1017.37 1017.19 1017.78 1017.73 1017.88 1017.92 1017.72 1017.83 1017.96 1018.08 1017.52 1017.30 1017.24 1017.22 1017.29 1016.60 1017.17 1017.44 1017.21 1017.27 1017.97 1018.27 1018.47 1018.50
1012.50 1013.21 1013.77 1014.29 1014.79 1015.27 1015.96 1016.63 1017.10 1017.28 1017.32 1017.19 1017.29 1017.13 1017.10 1017.16 1017.19 1017.48 1017.45 1017.51 1017.85 1017.90 1017.79 1018.20 1018.28 1018.09 1017.64 1017.66 1018.29 1018.15 1017.34 1016.99 1016.55 1017.25 1017.84 1019.00 1019.60 1018.97 1017.66 1017.92 1018.05 1018.34 1018.42
1012.01 1012.85 1013.60 1014.08 1014.61 1015.09 1015.59 1016.16 1016.63 1016.93 1016.85 1016.77 1016.88 1017.00 1016.99 1017.16 1017.15 1017.39 1017.37 1017.80 1017.76 1018.06 1017.87 1018.04 1018.45 1018.40 1018.42 1018.13 1018.91 1018.74 1018.58 1017.80 1017.12 1017.05 1018.01 1018.15 1019.21 1017.70 1017.28 1017.88 1017.56 1017.57 1017.79
1011.47 1012.28 1013.02 1013.74 1014.33 1014.82 1015.29 1015.79 1016.20 1016.44 1016.45 1016.52 1016.80 1016.96 1016.69 1016.99 1017.05 1017.11 1017.26 1017.40 1017.77 1017.96 1018.05 1018.27 1018.60 1018.65 1018.65 1018.35 1018.81 1018.76 1018.89 1018.87 1018.33 1017.52 1018.41 1018.26 1018.31 1017.91 1017.55 1017.66 1016.79 1015.69 1016.34
1010.57 1011.46 1012.21 1013.11 1013.94 1014.48 1014.94 1015.44 1015.85 1016.16 1016.50 1016.39 1016.48 1016.72 1016.85 1016.61 1016.78 1016.96 1017.11 1017.36 1017.45 1017.77 1018.10 1018.39 1018.39 1018.74 1018.84 1018.96 1018.45 1018.42 1018.24 1018.18 1018.46 1018.50 1017.81 1018.32 1018.40 1017.84 1017.54 1017.11 1017.19 1017.36 1017.15
1009.38 1010.52 1011.45 1012.42 1013.34 1013.96 1014.57 1014.98 1015.46 1015.96 1016.25 1016.14 1016.26 1016.48 1016.55 1016.57 1016.60 1016.77 1017.01 1017.16 1017.40 1017.58 1017.99 1018.11 1018.32 1018.20 1018.17 1018.61 1018.90 1018.79 1018.66 1018.41 1018.55 1018.94 1018.48 1017.53 1017.14 1017.53 1017.54 1017.26 1016.81 1016.97 1016.85
1008.68 1009.71 1010.86 1011.93 1012.78 1013.56 1014.18 1014.64 1015.08 1015.62 1015.96 1016.18 1016.31 1016.62 1016.62 1016.51 1016.54 1016.52 1016.64 1016.85 1016.92 1017.16 1017.55 1017.78 1017.91 1018.01 1018.11 1018.32 1018.48 1018.64 1018.77 1018.94 1018.81 1018.84 1018.80 1018.00 1017.55 1016.45 1016.78 1017.05 1017.03 1016.47 1016.54
Wind_Speed
4 5 12 15 18 14 12 13 14 13 12 11 11 12 11 12 10 11 10 11 12 11 10 8 7 6 6 8 8 9 10 10 13 12 11 11 12 12 13 13 15 14 16
12 7 12 13 16 16 14 14 14 13 11 10 10 11 11 12 10 9 10 11 11 11 11 9 8 7 7 7 7 9 10 13 19 18 14 12 7 11 9 9 15 13 16
12 8 7 12 15 16 14 15 14 13 10 8 10 12 11 10 9 8 9 9 8 10 10 11 11 10 8 8 8 9 8 19 15 12 14 3 5 8 9 12 14 14 16
13 9 7 12 15 15 13 13 13 12 10 9 9 11 11 9 9 8 9 7 8 10 11 13 12 10 8 8 7 6 8 16 12 8 1 3 3 8 13 12 13 14 15
13 9 10 13 14 14 14 12 12 11 10 9 9 8 10 8 8 7 9 8 9 9 11 11 10 9 8 8 4 3 4 21 6 11 3 3 3 7 11 13 13 13 14
14 12 13 15 16 14 12 13 13 10 9 8 8 8 10 8 7 7 9 9 8 9 10 10 9 8 6 3 1 4 5 17 18 11 4 3 5 9 12 14 14 13 15
14 12 11 14 14 15 14 12 11 11 8 8 8 9 10 8 8 7 8 9 8 7 7 7 6 5 3 2 4 5 12 13 11 4 4 5 6 9 9 10 12 13 13
16 12 10 14 13 13 14 13 12 8 9 9 9 9 9 8 9 8 7 8 7 5 5 4 3 2 1 3 5 7 15 3 8 2 10 8 11 12 12 13 12 12 12
15 12 8 9 11 12 12 10 11 9 8 10 10 9 9 8 8 8 7 6 6 5 5 3 3 1 4 4 9 16 15 6 4 4 5 4 13 14 14 13 12 11 10
10 8 6 5 5 5 5 10 9 10 8 9 10 10 9 8 8 8 6 6 6 7 6 6 3 1 3 11 18 15 8 9 0 3 3 4 13 16 15 13 12 12 11
10 6 3 6 5 6 5 6 8 10 8 9 10 10 7 3 5 6 8 9 9 9 9 9 1 5 7 18 18 12 12 2 5 5 2 11 13 16 16 16 15 13 10
13 11 5 6 9 8 6 5 4 5 3 4 4 6 4 4 2 7 9 10 10 11 11 6 4 11 9 2 2 6 5 5 3 7 4 16 17 18 18 15 14 15 14
19 19 20 8 7 6 5 3 3 2 2 2 4 4 4 3 2 4 3 4 4 9 3 5 10 10 9 5 7 9 7 8 5 5 10 17 18 17 18 17 16 14 12
14 16 13 12 6 5 3 3 3 4 2 1 3 6 2 1 1 3 3 4 4 3 4 3 4 9 9 9 8 7 10 9 5 6 8 17 16 18 18 17 16 15 12
13 12 9 9 7 5 5 3 3 3 3 2 2 6 3 4 4 4 5 4 3 1 3 4 5 4 4 9 11 10 12 10 9 9 5 16 15 18 17 16 14 12 10
11 10 13 11 8 5 5 5 4 4 3 2 2 4 6 4 4 4 4 3 4 3 4 5 7 8 7 5 12 13 14 14 12 12 5 5 4 13 14 13 13 12 10
13 14 14 14 10 8 7 6 4 4 2 2 4 2 6 5 0 2 2 2 3 5 4 4 5 2 2 5 5 4 8 10 11 12 4 6 7 12 14 13 11 9 8
14 14 14 13 12 7 6 5 4 4 4 4 4 2 7 5 3 2 3 2 1 3 2 3 3 3 2 3 4 2 5 5 5 8 8 6 8 6 9 12 10 8 9
16 14 12 12 13 9 7 4 4 4 4 4 3 3 7 5 4 4 3 3 1 4 4 4 1 3 3 5 4 4 4 5 4 0 1 6 8 4 4 2 2 4 9
15 15 12 9 11 10 6 4 3 2 3 4 4 5 8 5 4 3 1 5 4 2 2 0 3 5 1 1 5 5 3 2 4 4 6 5 9 3 5 6 6 3 7
14 12 12 10 10 9 4 4 2 4 3 4 4 6 5 5 5 5 2 3 1 1 3 5 3 6 6 5 4 3 4 4 6 5 6 5 10 8 8 5 4 2 3
16 14 13 11 12 9 7 5 4 4 4 6 5 5 5 4 5 4 4 0 4 1 4 4 4 2 4 2 1 2 5 7 6 4 8 13 8 4 5 3 6 2 1
18 16 14 13 14 11 9 5 2 1 1 2 2 3 4 5 5 3 3 2 5 3 1 2 3 3 1 3 2 3 2 1 3 3 5 4 8 3 6 4 3 5 6
20 17 16 14 15 11 10 7 6 4 4 3 3 4 5 4 2 3 2 4 3 3 3 1 2 2 3 2 3 5 3 3 2 4 0 3 3 4 7 4 4 6 1
22 19 16 16 14 12 11 9 8 5 4 3 3 4 4 4 4 4 4 5 4 3 2 3 3 1 1 2 1 2 2 2 1 1 4 6 2 9 7 9 8 6 6
19 18 17 19 16 12 11 8 9 8 6 4 3 3 3 3 4 6 5 6 5 5 4 4 2 3 2 2 0 2 1 1 3 2 2 3 4 3 7 8 8 6 7
Wind_Direction
170 178 140 133 121 107 112 125 117 111 113 113 103 95 92 92 91 94 107 119 132 132 135 152 149 131 109 109 107 95 81 82 89 88 86 95 103 95 101 93 120 117 119
139 153 137 127 119 118 114 119 117 116 118 116 109 104 99 97 99 105 117 118 139 148 152 149 138 119 108 100 90 79 74 66 72 63 50 26 96 110 111 109 120 124 123
138 141 146 138 119 116 119 118 121 120 116 115 111 107 101 103 112 103 112 120 125 128 131 130 126 133 127 118 104 94 97 97 94 97 65 67 324 118 134 130 126 130 128
137 152 150 137 119 121 120 123 125 122 119 116 109 104 108 107 103 109 118 121 122 117 116 129 130 124 117 106 97 99 101 109 81 38 32 98 285 134 131 137 138 138 134
138 144 138 133 127 129 128 128 126 124 125 118 115 113 111 114 116 112 116 116 110 114 118 111 113 116 106 109 103 52 67 94 38 281 181 314 276 150 145 144 146 141 138
143 130 141 142 135 135 133 130 129 124 124 123 124 130 115 121 130 133 121 122 119 116 114 117 119 112 104 92 351 330 320 130 192 238 180 225 222 176 161 154 160 154 146
122 133 146 144 139 136 138 129 135 122 123 130 133 132 125 129 125 129 121 130 116 116 121 124 123 115 104 297 313 357 20 22 39 260 244 221 215 184 163 147 150 150 151
133 142 150 143 142 143 138 142 139 133 134 135 139 136 129 137 136 138 126 128 130 150 143 143 127 151 219 338 336 13 60 12 72 310 243 236 204 175 175 165 164 156 163
131 138 138 142 147 150 143 148 143 142 135 143 140 133 134 145 146 137 147 145 154 181 180 181 207 252 342 0 13 27 44 96 146 176 330 255 183 176 178 172 163 157 172
114 111 128 126 136 132 155 161 160 146 135 145 141 143 152 162 154 152 158 180 186 214 218 215 236 310 319 29 21 33 6 330 46 134 189 290 210 180 177 176 168 179 185
116 89 127 144 144 142 148 174 166 158 150 155 145 149 166 163 170 173 195 200 208 224 231 238 9 313 35 70 65 331 285 119 305 323 356 295 235 187 179 179 179 182 181
134 134 264 185 172 171 165 173 153 170 122 129 136 149 178 217 210 191 190 199 217 237 242 255 67 14 35 243 72 269 349 316 260 241 230 265 222 196 181 185 180 178 183
144 163 205 181 174 171 150 179 143 128 154 127 129 132 204 210 259 187 184 211 223 251 249 221 122 149 215 230 141 190 198 236 273 268 229 230 214 199 177 182 183 186 194
141 153 157 161 179 182 155 169 158 143 143 124 127 154 157 96 255 239 218 205 215 243 245 233 203 156 191 197 201 173 216 211 218 283 248 185 208 212 188 189 200 205 198
151 162 158 153 182 185 166 175 146 155 134 198 234 199 182 230 236 186 216 209 203 116 191 237 301 279 208 200 216 212 212 218 199 239 155 194 212 220 208 198 204 212 208
152 162 157 176 184 168 171 170 149 134 144 209 224 268 219 231 242 231 166 192 176 150 198 202 221 228 214 198 209 209 216 215 191 213 220 143 200 237 229 202 193 207 214
157 165 168 171 174 158 152 150 154 145 154 236 267 265 280 269 227 231 21 356 202 234 248 313 235 335 64 109 320 295 119 195 195 207 76 149 182 208 213 207 189 194 223
157 159 155 161 156 150 154 156 147 155 160 227 263 279 280 280 301 17 29 340 359 311 284 329 14 325 111 224 84 58 27 46 120 218 144 155 168 199 218 176 191 188 202
164 161 170 158 159 154 153 154 165 165 173 205 249 258 271 267 267 103 81 281 93 8 38 356 334 355 45 348 50 19 39 12 8 100 151 204 115 145 205 212 119 219 207
161 163 176 167 152 151 155 142 171 158 208 209 222 239 229 233 248 148 175 279 7 72 326 342 6 6 48 34 352 25 348 27 274 28 84 48 124 142 80 74 53 312 263
158 161 162 145 160 146 146 150 166 206 197 240 227 232 215 238 247 174 201 272 270 245 357 11 39 30 351 18 18 308 318 346 347 104 70 58 9 347 74 82 83 3 295
162 171 165 166 166 166 166 177 156 192 197 199 200 196 224 236 228 177 199 247 60 162 360 37 61 51 195 306 321 22 1 339 340 19 89 93 264 226 94 113 110 95 29
169 175 168 165 173 175 175 167 183 234 300 176 161 172 233 221 213 156 115 122 96 84 308 312 102 357 23 327 174 148 31 304 315 26 144 157 184 300 98 198 209 171 194
175 174 176 165 170 178 173 177 169 171 185 214 172 163 207 202 224 228 185 170 152 144 167 269 49 137 157 326 339 21 334 161 113 341 342 183 160 166 177 193 205 278 157
165 168 161 168 171 181 175 179 184 172 192 209 180 190 207 217 215 228 210 190 183 181 231 244 280 300 91 89 44 3 358 326 111 161 301 316 241 180 187 198 203 244 196
167 165 161 164 173 175 179 180 181 181 196 203 193 180 214 228 220 224 225 199 202 194 207 231 241 223 260 300 297 330 100 100 320 17 292 286 246 301 185 183 195 231 242